Winkler County Airport
KINK : now visible

Airfield :











YOU CAN JOIN US ON...

 
LOGIN :

Register | Disclaimer

   EN    FR    IT 

 









Legend :    VFR   Marginal VFR   IFR   Intensive IFR   Very Intensive IFR
Visi :
Ceiling :
>= 8 km
>= 3000ft
5 to 8 km
1000 to 3000 ft
1500m to 5 km
500 to 1000 ft
800 to 1500m
200 to 500 ft
< 800m
< 200 ft
Symbols :   Thunderstorms  Fog  Heavy snow  Heavy precipitations  Wind > 20 kt






- Airport Elevation : 2822 ft


KINK - Winkler County

CURRENT METAR :
  • 212353Z AUTO 14009KT 10SM CLR 26/16 A3011 RMK AO2 SLP160 T02610156 10278 20228 56006

EXPIRED METARs :
  • 212253Z AUTO 12009KT 10SM CLR 27/16 A3011 RMK AO2 SLP162 T02720156
  • 212153Z AUTO 13007KT 10SM CLR 27/16 A3011 RMK AO2 SLP163 T02720156

TAF KINK
Valid from the 22 at 00:00 until the 23 at 00:00 UTC


212321Z 2200/2224 11008KT P6SM FEW060 SCT250
FM221100 15007KT 6SM BR OVC020
FM221600 17008KT P6SM SCT250
KZFW FIR / North America



MET'MAP, your aeronautical weather chart ! - Copyright ORBIFLY December 2007 - Disclaimer

ORBIFLY MET'MAP TEAM :

Programming & Development : Alexandra Zaïnal
Concept & original design : Baudouin d'Aumeries
Assistance for programming : Marc-Olivier Méhu
Technical & hardware support : Manuel Goepfert

Contact : metmap@orbifly.com




SOURCES & CREDITS :

   NOAA       Earth
Advisory